{"data":{"norad_id":63646,"epoch":"2026-09-20T16:59:26.156832Z","epoch_age_seconds":134508,"freshness":"FRESH","line1":"1 63646U 25083N   26263.70794163  .00012348  00000+0  45740-3 0  9999","line2":"2 63646  43.0008 343.7339 0001315 267.6013  92.4688 15.27587037 79928","mean_motion":15.27587037,"eccentricity":0.0001315,"inclination_deg":43.0008,"raan_deg":343.7339,"arg_perigee_deg":267.6013,"mean_anomaly_deg":92.4688,"bstar":0.0004574,"rev_number":7992,"period_min":94.266314463364,"perigee_km":482.12578161023,"apogee_km":483.93026801176,"semimajor_km":6861.165024811,"source":"CELESTRAK","updated_at":"2026-09-21T09:00:35.053061Z"}}